This demonstration page uses our WeatherBlox Daily Observations layout. Learn more.

39.92423, -83.80882

Hourly Observations for September 19, 2020

Temp ( °F °C ) Dew Point ( °F °C ) Humidity (%) Winds ( mph kmh ) Pressure ( in mb ) Visibility ( mi km ) Precip ( " mm )
12:56 am 00:56 Clear 45 7.2 40 4.4 83 83 NE 8 13 30.34 1028 10 16.0934 0 0
1:56 am 01:56 Clear 45 7.2 40 4.4 83 83 NE 9 15 30.34 1027 10 16.0934 0 0
2:56 am 02:56 Clear 45 7.2 41 5 86 86 NE 8 13 30.35 1028 10 16.0934 0 0
3:56 am 03:56 Clear 43 6.1 41 5 93 93 NE 7 11 30.34 1027 10 16.0934 0 0
4:56 am 04:56 Clear 42 5.6 41 5 96 96 NNE 7 11 30.34 1027 10 16.0934 0 0
5:56 am 05:56 Clear 42 5.6 41 5 96 96 NE 7 11 30.35 1028 10 16.0934 0 0
6:56 am 06:56 Clear 41 5 41 5 100 100 ENE 5 7 30.36 1028 10 16.0934 0 0
7:56 am 07:56 Sunny 40 4.4 40 4.4 100 100 ENE 6 9 30.37 1028 10 16.0934 0 0
8:56 am 08:56 Sunny 48 8.9 43 6.1 83 83 ENE 9 15 30.38 1029 10 16.0934 0 0
9:56 am 09:56 Sunny 53 11.7 38 3.3 57 57 E 13 20 30.39 1029 10 16.0934 0 0
10:56 am 10:56 Sunny 57 13.9 37 2.8 47 47 E 17 28 30.4 1029 10 16.0934 0 0
11:56 am 11:56 Sunny 59 15 36 2.2 42 42 ENE 14 22 30.39 1029 10 16.0934 0 0
12:56 pm 12:56 Sunny 61 16.1 34 1.1 36 36 E 9 15 30.38 1029 10 16.0934 0 0
1:56 pm 13:56 Sunny 63 17.2 33 0.6 33 33 E 13 20 30.36 1028 10 16.0934 0 0
2:56 pm 14:56 Sunny 64 17.8 33 0.6 32 32 ENE 9 15 30.34 1027 10 16.0934 0 0
3:56 pm 15:56 Sunny 65 18.3 33 0.6 31 31 ENE 9 15 30.33 1027 10 16.0934 0 0
4:56 pm 16:56 Sunny 65 18.3 33 0.6 31 31 E 6 9 30.31 1027 10 16.0934 0 0
5:56 pm 17:56 Sunny 65 18.3 33 0.6 31 31 NE 8 13 30.3 1026 10 16.0934 0 0
6:56 pm 18:56 Sunny 61 16.1 35 1.7 38 38 ENE 7 11 30.32 1027 10 16.0934 0 0
7:56 pm 19:56 Clear 52 11.1 40 4.4 64 64 E 5 7 30.32 1027 10 16.0934 0 0
8:56 pm 20:56 Clear 48 8.9 39 3.9 71 71 ENE 7 11 30.33 1027 10 16.0934 0 0
9:56 pm 21:56 Clear 45 7.2 40 4.4 83 83 ENE 6 9 30.34 1027 10 16.0934 0 0
10:56 pm 22:56 Clear 45 7.2 40 4.4 83 83 ENE 5 7 30.35 1028 10 16.0934 0 0
11:56 pm 23:56 Clear 43 6.1 39 3.9 86 86 E 3 6 30.36 1028 10 16.0934 0 0

Powered by AerisWeather